• In Hungary
  • List of Countries
  • For 7 days
  • Water Temperature
  • Satellite Maps
  • Weather Map
  • News
  • Weather Widgets
  • user-avatar
    Login

    Hourly Weather Mansa

    Today, 21 November, Tuesday

    Time Temperature Precipitation Wind Pressure Humidity
    00:00 +22°C° 1.4 mm 1 mps 659 mmHg 86%
    01:00 +21°C° 1.4 mm 2 mps 659 mmHg 87%
    02:00 +21°C° 0 mm 1 mps 659 mmHg 87%
    03:00 +21°C° 0 mm 1 mps 659 mmHg 88%
    04:00 +21°C° 0 mm 1 mps 659 mmHg 89%
    05:00 +21°C° 0 mm 1 mps 659 mmHg 90%
    06:00 +21°C° 0 mm 2 mps 660 mmHg 83%
    07:00 +23°C° 0 mm 2 mps 660 mmHg 76%
    08:00 +25°C° 0 mm 3 mps 661 mmHg 69%
    09:00 +27°C° 0 mm 3 mps 661 mmHg 61%
    10:00 +29°C° 0 mm 3 mps 661 mmHg 53%
    11:00 +31°C° 0 mm 3 mps 661 mmHg 45%
    12:00 +31°C° 0 mm 2 mps 661 mmHg 42%
    13:00 +32°C° 0 mm 2 mps 660 mmHg 40%
    14:00 +34°C° 0 mm 2 mps 659 mmHg 37%
    15:00 +32°C° 0 mm 1 mps 659 mmHg 40%
    16:00 +31°C° 0 mm 1 mps 658 mmHg 42%
    17:00 +31°C° 0 mm 1 mps 658 mmHg 44%
    18:00 +29°C° 0 mm 1 mps 658 mmHg 47%
    19:00 +28°C° 0 mm 1 mps 658 mmHg 50%
    20:00 +26°C° 0 mm 1 mps 658 mmHg 53%
    21:00 +26°C° 0.2 mm 1 mps 658 mmHg 57%
    22:00 +25°C° 0.2 mm 1 mps 659 mmHg 61%
    23:00 +24°C° 0.2 mm 2 mps 659 mmHg 65%

    Tomorrow, 22 November, Wednesday

    Time Temperature Precipitation Wind Pressure Humidity
    00:00 +24°C° 0.6 mm 2 mps 658 mmHg 69%
    01:00 +23°C° 0.6 mm 2 mps 658 mmHg 73%
    02:00 +23°C° 0.6 mm 2 mps 658 mmHg 77%
    03:00 +23°C° 0.5 mm 1 mps 658 mmHg 78%
    04:00 +23°C° 0.5 mm 1 mps 658 mmHg 78%
    05:00 +20°C° 0.5 mm 0 mps 658 mmHg 79%
    06:00 +24°C° 0 mm 1 mps 659 mmHg 75%
    07:00 +25°C° 0 mm 1 mps 659 mmHg 70%
    08:00 +26°C° 0 mm 1 mps 660 mmHg 66%
    09:00 +28°C° 0 mm 2 mps 660 mmHg 57%
    10:00 +30°C° 0 mm 2 mps 660 mmHg 49%
    11:00 +32°C° 0 mm 2 mps 660 mmHg 40%
    12:00 +34°C° 0 mm 2 mps 660 mmHg 39%
    13:00 +34°C° 0 mm 2 mps 659 mmHg 38%
    14:00 +34°C° 0 mm 2 mps 658 mmHg 37%
    15:00 +32°C° 0 mm 1 mps 657 mmHg 40%
    16:00 +31°C° 0 mm 1 mps 657 mmHg 42%
    17:00 +31°C° 0 mm 1 mps 657 mmHg 45%
    18:00 +30°C° 0 mm 1 mps 657 mmHg 47%
    19:00 +28°C° 0 mm 1 mps 657 mmHg 49%
    20:00 +27°C° 0 mm 1 mps 658 mmHg 51%
    21:00 +26°C° 0.3 mm 1 mps 658 mmHg 58%
    22:00 +25°C° 0.3 mm 1 mps 658 mmHg 64%
    23:00 +24°C° 0.3 mm 1 mps 658 mmHg 70%

    Day after tomorrow, 23 November, Thursday

    Time Temperature Precipitation Wind Pressure Humidity
    00:00 +23°C° 1.1 mm 1 mps 657 mmHg 76%
    01:00 +22°C° 1.1 mm 1 mps 657 mmHg 83%
    02:00 +22°C° 1.1 mm 1 mps 656 mmHg 89%
    03:00 +22°C° 2.3 mm 1 mps 656 mmHg 89%
    04:00 +22°C° 2.3 mm 1 mps 657 mmHg 90%
    05:00 +21°C° 2.3 mm 1 mps 657 mmHg 90%
    06:00 +22°C° 2.3 mm 1 mps 657 mmHg 89%
    07:00 +22°C° 2.3 mm 1 mps 658 mmHg 88%
    08:00 +21°C° 2.3 mm 2 mps 659 mmHg 86%
    09:00 +24°C° 1.2 mm 1 mps 659 mmHg 80%
    10:00 +26°C° 1.2 mm 1 mps 659 mmHg 74%
    11:00 +27°C° 1.2 mm 1 mps 660 mmHg 68%
    12:00 +29°C° 0 mm 1 mps 659 mmHg 61%
    13:00 +30°C° 0 mm 1 mps 659 mmHg 53%
    14:00 +32°C° 0 mm 1 mps 658 mmHg 46%
    15:00 +31°C° 0.1 mm 1 mps 658 mmHg 49%
    16:00 +30°C° 0.1 mm 1 mps 657 mmHg 52%
    17:00 +29°C° 0.1 mm 1 mps 657 mmHg 55%
    18:00 +27°C° 0.3 mm 1 mps 657 mmHg 62%
    19:00 +26°C° 0.3 mm 1 mps 657 mmHg 70%
    20:00 +24°C° 0.3 mm 1 mps 658 mmHg 77%
    21:00 +23°C° 2.7 mm 1 mps 658 mmHg 82%
    22:00 +22°C° 2.7 mm 1 mps 658 mmHg 86%
    23:00 +22°C° 2.7 mm 1 mps 658 mmHg 90%

    24 November, Friday

    Time Temperature Precipitation Wind Pressure Humidity
    00:00 +22°C° 1.1 mm 1 mps 658 mmHg 90%
    01:00 +22°C° 1.1 mm 1 mps 658 mmHg 90%
    02:00 +22°C° 1.1 mm 1 mps 657 mmHg 89%
    03:00 +19°C° 0.2 mm 0 mps 658 mmHg 89%
    04:00 +19°C° 0.2 mm 0 mps 658 mmHg 89%
    05:00 +19°C° 0.2 mm 0 mps 658 mmHg 89%
    06:00 +20°C° 0.2 mm 0 mps 659 mmHg 86%
    07:00 +21°C° 0.2 mm 0 mps 659 mmHg 83%
    08:00 +22°C° 0.2 mm 0 mps 660 mmHg 81%
    09:00 +25°C° 0.3 mm 1 mps 660 mmHg 76%
    10:00 +26°C° 0.3 mm 1 mps 660 mmHg 71%
    11:00 +27°C° 0.3 mm 2 mps 660 mmHg 66%
    12:00 +28°C° 0.3 mm 1 mps 659 mmHg 62%
    13:00 +29°C° 0.3 mm 1 mps 659 mmHg 57%
    14:00 +31°C° 0.3 mm 1 mps 658 mmHg 53%
    15:00 +30°C° 0.5 mm 1 mps 658 mmHg 56%
    16:00 +29°C° 0.5 mm 1 mps 658 mmHg 58%
    17:00 +26°C° 0.5 mm 0 mps 658 mmHg 61%
    18:00 +27°C° 0.4 mm 1 mps 658 mmHg 68%
    19:00 +25°C° 0.4 mm 1 mps 658 mmHg 75%
    20:00 +23°C° 0.4 mm 1 mps 658 mmHg 82%
    21:00 +22°C° 0 mm 1 mps 658 mmHg 84%
    22:00 +22°C° 0 mm 1 mps 658 mmHg 86%
    23:00 +21°C° 0 mm 1 mps 658 mmHg 88%

    25 November, Saturday

    Time Temperature Precipitation Wind Pressure Humidity
    00:00 +21°C° 0.3 mm 1 mps 658 mmHg 89%
    01:00 +21°C° 0.3 mm 1 mps 657 mmHg 90%
    02:00 +20°C° 0.3 mm 1 mps 657 mmHg 92%
    03:00 +20°C° 0.5 mm 1 mps 657 mmHg 91%
    04:00 +20°C° 0.5 mm 1 mps 658 mmHg 91%
    05:00 +20°C° 0.5 mm 1 mps 658 mmHg 91%
    06:00 +21°C° 0.3 mm 1 mps 659 mmHg 88%
    07:00 +22°C° 0.3 mm 1 mps 659 mmHg 85%
    08:00 +23°C° 0.3 mm 1 mps 660 mmHg 82%
    09:00 +25°C° 1.1 mm 1 mps 660 mmHg 77%
    10:00 +26°C° 1.1 mm 1 mps 660 mmHg 72%
    11:00 +28°C° 1.1 mm 1 mps 660 mmHg 68%
    12:00 +28°C° 1.6 mm 1 mps 659 mmHg 67%
    13:00 +28°C° 1.6 mm 1 mps 659 mmHg 66%
    14:00 +28°C° 1.6 mm 1 mps 658 mmHg 65%
    15:00 +27°C° 0.9 mm 1 mps 658 mmHg 69%
    16:00 +27°C° 0.9 mm 1 mps 658 mmHg 72%
    17:00 +26°C° 0.9 mm 1 mps 657 mmHg 76%
    18:00 +25°C° 0.2 mm 1 mps 658 mmHg 79%
    19:00 +23°C° 0.2 mm 1 mps 658 mmHg 82%
    20:00 +22°C° 0.2 mm 1 mps 658 mmHg 84%
    21:00 +22°C° 0 mm 1 mps 658 mmHg 84%
    22:00 +22°C° 0 mm 1 mps 659 mmHg 84%
    23:00 +22°C° 0 mm 1 mps 659 mmHg 84%

    26 November, Sunday

    Time Temperature Precipitation Wind Pressure Humidity
    00:00 +19°C° 0.1 mm 0 mps 658 mmHg 85%
    01:00 +19°C° 0.1 mm 0 mps 658 mmHg 87%
    02:00 +19°C° 0.1 mm 0 mps 658 mmHg 88%
    03:00 +19°C° 0 mm 0 mps 658 mmHg 89%
    04:00 +20°C° 0 mm 1 mps 658 mmHg 90%
    05:00 +20°C° 0 mm 1 mps 659 mmHg 91%
    06:00 +21°C° 0.2 mm 1 mps 659 mmHg 88%
    07:00 +22°C° 0.2 mm 1 mps 660 mmHg 86%
    08:00 +23°C° 0.2 mm 1 mps 661 mmHg 84%
    09:00 +24°C° 0.7 mm 1 mps 660 mmHg 78%
    10:00 +26°C° 0.7 mm 1 mps 660 mmHg 72%
    11:00 +27°C° 0.7 mm 1 mps 660 mmHg 66%
    12:00 +28°C° 0.6 mm 1 mps 660 mmHg 64%
    13:00 +28°C° 0.6 mm 1 mps 660 mmHg 61%
    14:00 +29°C° 0.6 mm 1 mps 659 mmHg 59%
    15:00 +28°C° 0.8 mm 1 mps 659 mmHg 63%
    16:00 +27°C° 0.8 mm 1 mps 659 mmHg 68%
    17:00 +26°C° 0.8 mm 1 mps 659 mmHg 73%
    18:00 +25°C° 0.6 mm 1 mps 659 mmHg 78%
    19:00 +24°C° 0.6 mm 1 mps 660 mmHg 83%
    20:00 +22°C° 0.6 mm 1 mps 660 mmHg 88%
    21:00 +22°C° 1 mm 1 mps 660 mmHg 89%
    22:00 +22°C° 1 mm 1 mps 660 mmHg 90%
    23:00 +21°C° 1 mm 1 mps 660 mmHg 91%
    Show more